DW0326 Weather Reports


Display with metric or nautical units.
time (UTC)temp
F
wind
direction
speed
MPH
gust
MPH
rain 1hr
in
rain 24hr
in
rain mn
in
humidity
%
barometer
mb
20260905081256 80 0 0.0 0.0 0.00 0.38 0.00 94 1008.0
20260905080355 80 0 0.0 0.0 0.00 0.38 0.00 94 1008.1
20260905074556 80 0 0.0 0.0 0.00 0.38 0.00 94 1008.3
20260905073656 81 0 0.0 0.0 0.00 0.38 0.00 93 1008.3
20260905072756 81 0 0.0 0.0 0.00 0.38 0.00 93 1008.5
20260905070955 81 0 0.0 0.0 0.00 0.38 0.00 93 1008.5
20260905070055 81 0 0.0 0.0 0.00 0.38 0.00 93 1008.7
20260905065156 81 0 0.0 0.0 0.00 0.38 0.00 93 1008.7
20260905064255 81 0 0.0 0.0 0.00 0.38 0.00 92 1008.6
20260905062455 82 0 0.0 0.0 0.00 0.38 0.00 92 1008.9
20260905061555 82 0 0.0 0.0 0.00 0.38 0.00 92 1008.9
20260905060656 82 0 0.0 0.0 0.00 0.38 0.00 92 1008.9
20260905055756 82 0 0.0 0.0 0.00 0.38 0.00 91 1008.8
20260905054856 82 0 0.0 0.0 0.00 0.38 0.00 91 1009.0
20260905053955 82 0 0.0 0.0 0.00 0.38 0.00 91 1009.0
20260905053055 82 0 0.0 0.0 0.00 0.38 0.00 91 1009.1
20260905051255 82 0 0.0 0.0 0.00 0.38 0.00 90 1009.1
20260905050356 82 0 0.0 0.0 0.00 0.38 0.00 90 1009.0
20260905045455 83 0 0.0 0.0 0.00 0.38 0.38 90 1009.0
20260905044555 83 0 0.0 0.0 0.00 0.38 0.38 90 1009.0
20260905043655 83 0 0.0 0.0 0.00 0.38 0.38 89 1009.0
20260905042756 83 0 0.0 0.0 0.00 0.38 0.38 89 1009.0
20260905041855 83 0 0.0 0.0 0.00 0.38 0.38 89 1009.1
20260905040955 83 0 0.0 0.0 0.00 0.38 0.38 89 1009.1
20260905040056 83 0 0.0 0.0 0.00 0.38 0.38 88 1009.2
20260905035156 84 0 0.0 0.0 0.00 0.38 0.38 88 1009.2
20260905034255 84 0 0.0 0.0 0.00 0.38 0.38 88 1009.2
20260905033356 84 186 1.0 5.0 0.00 0.38 0.38 87 1009.3
20260905031555 84 188 0.0 6.0 0.00 0.38 0.38 87 1009.3
20260905030655 84 188 1.0 7.0 0.00 0.38 0.38 86 1009.3
20260905025755 84 189 1.0 11.0 0.00 0.38 0.38 86 1009.2
20260905024855 85 187 1.0 10.0 0.00 0.38 0.38 86 1009.1
20260905023955 85 182 1.0 11.0 0.00 0.38 0.38 85 1009.1
20260905023055 85 172 1.0 7.0 0.00 0.38 0.38 85 1009.0
20260905022155 85 173 1.0 6.0 0.00 0.38 0.38 84 1009.0
20260905021255 85 172 1.0 6.0 0.00 0.38 0.38 84 1008.7
20260905020355 86 178 0.0 4.0 0.00 0.38 0.38 83 1008.6
20260905015455 86 178 1.0 5.0 0.00 0.38 0.38 83 1008.6
20260905014555 86 0 0.0 0.0 0.00 0.38 0.38 83 1008.5
20260905013655 86 0 0.0 0.0 0.00 0.38 0.38 83 1008.5
20260905012755 86 181 0.0 5.0 0.00 0.38 0.38 83 1008.2
20260905011855 86 181 0.0 9.0 0.00 0.38 0.38 82 1008.1
20260905010955 86 0 0.0 0.0 0.00 0.38 0.38 82 1008.1
20260905010055 86 0 0.0 0.0 0.00 0.38 0.38 80 1008.1
20260905005155 86 0 0.0 0.0 0.01 0.38 0.38 80 1008.1
20260905004255 86 179 0.0 7.0 0.01 0.38 0.38 80 1008.0
20260905003355 86 178 1.0 7.0 0.01 0.38 0.38 80 1007.6
20260905002455 86 165 1.0 6.0 0.01 0.38 0.38 80 1007.6
20260905001555 86 160 1.0 7.0 0.01 0.38 0.38 80 1007.6
20260905000655 87 199 0.0 11.0 0.01 0.38 0.38 82 1007.6
20260904235756 89 0 0.0 0.0 0.01 0.38 0.38 79 1007.5
20260904234855 89 0 0.0 0.0 0.00 0.37 0.37 75 1007.5
20260904233955 90 0 0.0 0.0 0.00 0.37 0.37 75 1007.5
20260904233055 90 0 0.0 0.0 0.00 0.37 0.37 74 1007.5
20260904232155 90 0 0.0 0.0 0.00 0.37 0.37 73 1007.5
20260904231255 90 0 0.0 0.0 0.00 0.37 0.37 74 1007.5
20260904230355 91 0 0.0 0.0 0.00 0.37 0.37 73 1007.5
20260904225455 91 0 0.0 0.0 0.00 0.37 0.37 74 1007.5
20260904224555 92 0 0.0 0.0 0.00 0.37 0.37 72 1007.5
20260904223655 92 0 0.0 0.0 0.00 0.37 0.37 70 1007.5
20260904221855 93 0 0.0 0.0 0.00 0.37 0.37 70 1007.6
20260904220955 94 34 1.0 9.0 0.00 0.37 0.37 70 1007.6
20260904220055 94 26 1.0 9.0 0.00 0.37 0.37 69 1007.7
20260904215155 94 77 0.0 7.0 0.00 0.37 0.37 70 1007.7
20260904214255 94 189 0.0 5.0 0.00 0.37 0.37 63 1007.7
20260904213355 93 188 0.0 9.0 0.00 0.37 0.37 64 1008.0
20260904212455 93 0 0.0 0.0 0.00 0.37 0.37 67 1008.0
20260904211555 93 0 0.0 0.0 0.00 0.37 0.37 66 1008.1
20260904205755 92 0 0.0 0.0 0.00 0.37 0.37 69 1008.4
20260904204855 92 0 0.0 0.0 0.00 0.37 0.37 70 1008.6
20260904203955 90 0 0.0 0.0 0.00 0.37 0.37 77 1008.6
20260904203055 89 0 0.0 0.0 0.00 0.37 0.37 73 1009.0
20260904202155 89 0 0.0 0.0 0.00 0.37 0.37 76 1009.0
20260904201255 89 0 0.0 0.0 0.00 0.37 0.37 78 1009.1
20260904200355 88 0 0.0 0.0 0.00 0.37 0.37 80 1009.1
20260904195455 87 0 0.0 0.0 0.00 0.37 0.37 83 1009.1
20260904194555 86 0 0.0 0.0 0.00 0.37 0.37 88 1009.2
20260904193655 84 0 0.0 0.0 0.00 0.37 0.37 87 1009.2
20260904192755 83 0 0.0 0.0 0.00 0.37 0.37 92 1009.5
20260904191855 83 0 0.0 0.0 0.00 0.37 0.37 96 1009.7
20260904190955 83 0 0.0 0.0 0.00 0.37 0.37 98 1009.7
20260904190055 82 0 0.0 0.0 0.01 0.37 0.37 99 1010.1
20260904185155 82 0 0.0 0.0 0.10 0.37 0.37 100 1010.1
20260904183355 81 0 0.0 0.0 0.32 0.38 0.37 99 1010.6
20260904182455 80 228 1.0 10.0 0.35 0.42 0.37 99 1010.6
20260904181555 79 211 0.0 10.0 0.35 0.47 0.37 96 1010.6
20260904175755 80 205 5.0 15.0 0.31 0.43 0.35 92 1011.3
20260904174855 82 210 0.0 13.0 0.16 0.28 0.21 91 1011.1
20260904173955 83 0 0.0 0.0 0.10 0.22 0.12 89 1011.1
20260904173055 84 0 0.0 0.0 0.00 0.12 0.02 83 1011.2
20260904172155 84 316 0.0 4.0 0.00 0.12 0.02 84 1011.2
20260904171255 85 0 0.0 0.0 0.00 0.12 0.02 82 1011.0
20260904170354 86 226 0.0 7.0 0.00 0.12 0.02 81 1010.8
20260904165455 87 182 2.0 11.0 0.00 0.12 0.02 82 1010.8
20260904164555 87 189 0.0 10.0 0.00 0.12 0.02 87 1010.7
20260904163655 87 117 0.0 5.0 0.00 0.12 0.02 88 1010.7
20260904161855 86 117 0.0 7.0 0.00 0.12 0.02 89 1010.6
20260904160055 87 76 1.0 11.0 0.00 0.12 0.02 87 1010.7
20260904154254 88 147 0.0 4.0 0.00 0.12 0.02 86 1010.2
20260904153354 87 0 0.0 0.0 0.00 0.12 0.02 89 1010.1
20260904152455 86 0 0.0 0.0 0.00 0.12 0.02 91 1010.1
20260904151554 85 0 0.0 0.0 0.00 0.12 0.02 92 1010.1
20260904150655 85 0 0.0 0.0 0.00 0.12 0.02 92 1010.1
20260904144855 84 0 0.0 0.0 0.00 0.12 0.02 93 1010.1
20260904143954 84 0 0.0 0.0 0.00 0.12 0.02 95 1010.1
20260904143055 83 0 0.0 0.0 0.00 0.12 0.02 97 1010.1
20260904142155 83 0 0.0 0.0 0.00 0.12 0.02 99 1010.1
20260904141255 82 0 0.0 0.0 0.00 0.12 0.02 100 1010.0
20260904135455 82 0 0.0 0.0 0.00 0.12 0.02 100 1009.8
20260904134554 81 0 0.0 0.0 0.00 0.12 0.02 100 1009.8
20260904133655 81 0 0.0 0.0 0.00 0.12 0.02 100 1009.8
20260904132754 80 0 0.0 0.0 0.00 0.12 0.02 100 1009.7
20260904131855 80 0 0.0 0.0 0.00 0.12 0.02 100 1009.7
20260904130954 79 0 0.0 0.0 0.00 0.12 0.02 99 1009.7
20260904130055 79 0 0.0 0.0 0.00 0.12 0.02 99 1009.6
20260904125154 79 0 0.0 0.0 0.00 0.12 0.02 99 1009.6
20260904123354 79 0 0.0 0.0 0.00 0.12 0.02 99 1009.1
20260904122454 79 0 0.0 0.0 0.00 0.12 0.02 99 1009.1
20260904121555 79 0 0.0 0.0 0.00 0.12 0.02 99 1008.9
20260904115754 79 0 0.0 0.0 0.00 0.12 0.02 99 1008.8
20260904114855 79 0 0.0 0.0 0.00 0.12 0.02 99 1008.9
20260904113054 80 0 0.0 0.0 0.00 0.12 0.02 98 1008.9
20260904112155 80 0 0.0 0.0 0.00 0.12 0.02 98 1008.9
20260904111254 80 0 0.0 0.0 0.00 0.12 0.02 98 1009.0
20260904105454 80 0 0.0 0.0 0.00 0.12 0.02 98 1008.8
20260904104555 80 0 0.0 0.0 0.00 0.12 0.02 98 1008.6
20260904103655 80 0 0.0 0.0 0.00 0.12 0.02 98 1008.6
20260904102754 80 0 0.0 0.0 0.00 0.12 0.02 97 1008.5
20260904100955 80 0 0.0 0.0 0.01 0.12 0.02 97 1008.4
20260904100055 80 0 0.0 0.0 0.01 0.12 0.02 97 1008.3
20260904095154 80 0 0.0 0.0 0.02 0.12 0.02 97 1008.3
20260904093355 81 0 0.0 0.0 0.02 0.12 0.02 96 1008.1
20260904092455 81 0 0.0 0.0 0.02 0.12 0.02 96 1008.1
20260904091554 81 0 0.0 0.0 0.01 0.11 0.01 96 1008.2
20260904090655 81 0 0.0 0.0 0.01 0.11 0.01 95 1008.2
20260904083954 81 0 0.0 0.0 0.00 0.10 0.00 94 1008.4